Year,Month,Day,Hour,Minute,Value (Times are PST for temperature in C)
2010,08,17,00,00,17.90
2010,08,17,00,01,17.90
2010,08,17,00,02,17.90
2010,08,17,00,03,17.90
2010,08,17,00,04,17.90
2010,08,17,00,05,17.90
2010,08,17,00,06,17.90
2010,08,17,00,07,17.90
2010,08,17,00,08,17.90
2010,08,17,00,09,17.80
2010,08,17,00,10,17.80
2010,08,17,00,11,17.80
2010,08,17,00,12,17.80
2010,08,17,00,13,17.70
2010,08,17,00,14,17.70
2010,08,17,00,15,17.70
2010,08,17,00,16,17.70
2010,08,17,00,17,17.70
2010,08,17,00,18,17.70
2010,08,17,00,19,17.70
2010,08,17,00,20,17.70
2010,08,17,00,21,17.70
2010,08,17,00,22,17.80
2010,08,17,00,23,17.80
2010,08,17,00,24,17.90
2010,08,17,00,25,17.90
2010,08,17,00,26,17.90
2010,08,17,00,27,17.90
2010,08,17,00,28,17.90
2010,08,17,00,29,17.90
2010,08,17,00,30,17.90
2010,08,17,00,31,17.90
2010,08,17,00,32,17.90
2010,08,17,00,33,17.90
2010,08,17,00,34,17.90
2010,08,17,00,35,17.90
2010,08,17,00,36,17.80
2010,08,17,00,37,17.80
2010,08,17,00,38,17.80
2010,08,17,00,39,17.80
2010,08,17,00,40,17.80
2010,08,17,00,41,17.80
2010,08,17,00,42,17.70
2010,08,17,00,43,17.70
2010,08,17,00,44,17.70
2010,08,17,00,45,17.60
2010,08,17,00,46,17.60
2010,08,17,00,47,17.60
2010,08,17,00,48,17.60
2010,08,17,00,49,17.60
2010,08,17,00,50,17.60
2010,08,17,00,51,17.50
2010,08,17,00,52,17.50
2010,08,17,00,53,17.50
2010,08,17,00,54,17.50
2010,08,17,00,55,17.50
2010,08,17,00,56,17.40
2010,08,17,00,57,17.40
2010,08,17,00,58,17.40
2010,08,17,00,59,17.30
2010,08,17,01,00,17.30
2010,08,17,01,01,17.30
2010,08,17,01,02,17.30
2010,08,17,01,03,17.30
2010,08,17,01,04,17.20
2010,08,17,01,05,17.20
2010,08,17,01,06,17.20
2010,08,17,01,07,17.10
2010,08,17,01,08,17.10
2010,08,17,01,09,17.00
2010,08,17,01,10,17.00
2010,08,17,01,11,17.00
2010,08,17,01,12,17.00
2010,08,17,01,13,16.90
2010,08,17,01,14,16.90
2010,08,17,01,15,16.90
2010,08,17,01,16,16.90
2010,08,17,01,17,16.90
2010,08,17,01,18,16.80
2010,08,17,01,19,16.80
2010,08,17,01,20,16.80
2010,08,17,01,21,16.80
2010,08,17,01,22,16.80
2010,08,17,01,23,16.80
2010,08,17,01,24,16.70
2010,08,17,01,25,16.70
2010,08,17,01,26,16.70
2010,08,17,01,27,16.70
2010,08,17,01,28,16.70
2010,08,17,01,29,16.70
2010,08,17,01,30,16.70
2010,08,17,01,31,16.70
2010,08,17,01,32,16.70
2010,08,17,01,33,16.70
2010,08,17,01,34,16.60
2010,08,17,01,35,16.60
2010,08,17,01,36,16.60
2010,08,17,01,37,16.60
2010,08,17,01,38,16.50
2010,08,17,01,39,16.40
2010,08,17,01,40,16.40
2010,08,17,01,41,16.40
2010,08,17,01,42,16.40
2010,08,17,01,43,16.30
2010,08,17,01,44,16.30
2010,08,17,01,45,16.30
2010,08,17,01,46,16.30
2010,08,17,01,47,16.20
2010,08,17,01,48,16.20
2010,08,17,01,49,16.20
2010,08,17,01,50,16.20
2010,08,17,01,51,16.20
2010,08,17,01,52,16.10
2010,08,17,01,53,16.10
2010,08,17,01,54,16.10
2010,08,17,01,55,16.10
2010,08,17,01,56,16.10
2010,08,17,01,57,16.10
2010,08,17,01,58,16.10
2010,08,17,01,59,16.10
2010,08,17,02,00,16.00
2010,08,17,02,01,15.90
2010,08,17,02,02,15.90
2010,08,17,02,03,15.90
2010,08,17,02,04,15.80
2010,08,17,02,05,15.80
2010,08,17,02,06,15.80
2010,08,17,02,07,15.80
2010,08,17,02,08,15.80
2010,08,17,02,09,15.80
2010,08,17,02,10,15.80
2010,08,17,02,11,15.80
2010,08,17,02,12,15.80
2010,08,17,02,13,15.80
2010,08,17,02,14,15.90
2010,08,17,02,15,15.90
2010,08,17,02,16,15.80
2010,08,17,02,17,15.80
2010,08,17,02,18,15.80
2010,08,17,02,19,15.80
2010,08,17,02,20,15.80
2010,08,17,02,21,15.80
2010,08,17,02,22,15.80
2010,08,17,02,23,15.80
2010,08,17,02,24,15.80
2010,08,17,02,25,15.80
2010,08,17,02,26,15.70
2010,08,17,02,27,15.70
2010,08,17,02,28,15.70
2010,08,17,02,29,15.70
2010,08,17,02,30,15.70
2010,08,17,02,31,15.70
2010,08,17,02,32,15.70
2010,08,17,02,33,15.70
2010,08,17,02,34,15.70
2010,08,17,02,35,15.70
2010,08,17,02,36,15.70
2010,08,17,02,37,15.60
2010,08,17,02,38,15.60
2010,08,17,02,39,15.60
2010,08,17,02,40,15.60
2010,08,17,02,41,15.60
2010,08,17,02,42,15.60
2010,08,17,02,43,15.60
2010,08,17,02,44,15.60
2010,08,17,02,45,15.50
2010,08,17,02,46,15.50
2010,08,17,02,47,15.50
2010,08,17,02,48,15.50
2010,08,17,02,49,15.50
2010,08,17,02,50,15.40
2010,08,17,02,51,15.40
2010,08,17,02,52,15.40
2010,08,17,02,53,15.40
2010,08,17,02,54,15.30
2010,08,17,02,55,15.30
2010,08,17,02,56,15.30
2010,08,17,02,57,15.30
2010,08,17,02,58,15.30
2010,08,17,02,59,15.30
2010,08,17,03,00,15.20
2010,08,17,03,01,15.20
2010,08,17,03,02,15.20
2010,08,17,03,03,15.10
2010,08,17,03,04,15.10
2010,08,17,03,05,15.10
2010,08,17,03,06,15.00
2010,08,17,03,07,15.00
2010,08,17,03,08,14.90
2010,08,17,03,09,14.90
2010,08,17,03,10,14.90
2010,08,17,03,11,14.90
2010,08,17,03,12,14.80
2010,08,17,03,13,14.80
2010,08,17,03,14,14.80
2010,08,17,03,15,14.80
2010,08,17,03,16,14.80
2010,08,17,03,17,14.80
2010,08,17,03,18,14.80
2010,08,17,03,19,14.70
2010,08,17,03,20,14.70
2010,08,17,03,21,14.70
2010,08,17,03,22,14.70
2010,08,17,03,23,14.70
2010,08,17,03,24,14.70
2010,08,17,03,25,14.70
2010,08,17,03,26,14.60
2010,08,17,03,27,14.60
2010,08,17,03,28,14.60
2010,08,17,03,29,14.60
2010,08,17,03,30,14.60
2010,08,17,03,31,14.60
2010,08,17,03,32,14.50
2010,08,17,03,33,14.50
2010,08,17,03,34,14.50
2010,08,17,03,35,14.50
2010,08,17,03,36,14.40
2010,08,17,03,37,14.40
2010,08,17,03,38,14.40
2010,08,17,03,39,14.40
2010,08,17,03,40,14.40
2010,08,17,03,41,14.30
2010,08,17,03,42,14.30
2010,08,17,03,43,14.30
2010,08,17,03,44,14.30
2010,08,17,03,45,14.30
2010,08,17,03,46,14.30
2010,08,17,03,47,14.20
2010,08,17,03,48,14.20
2010,08,17,03,49,14.20
2010,08,17,03,50,14.20
2010,08,17,03,51,14.20
2010,08,17,03,52,14.20
2010,08,17,03,53,14.20
2010,08,17,03,54,14.20
2010,08,17,03,55,14.20
2010,08,17,03,56,14.20
2010,08,17,03,57,14.10
2010,08,17,03,58,14.10
2010,08,17,03,59,14.10
2010,08,17,04,00,14.10
2010,08,17,04,01,14.00
2010,08,17,04,02,14.00
2010,08,17,04,03,14.00
2010,08,17,04,04,13.90
2010,08,17,04,05,13.90
2010,08,17,04,06,13.90
2010,08,17,04,07,13.90
2010,08,17,04,08,13.90
2010,08,17,04,09,13.90
2010,08,17,04,10,13.90
2010,08,17,04,11,13.90
2010,08,17,04,12,13.90
2010,08,17,04,13,13.90
2010,08,17,04,14,13.80
2010,08,17,04,15,13.80
2010,08,17,04,16,13.80
2010,08,17,04,17,13.80
2010,08,17,04,18,13.70
2010,08,17,04,19,13.70
2010,08,17,04,20,13.70
2010,08,17,04,21,13.70
2010,08,17,04,22,13.70
2010,08,17,04,23,13.70
2010,08,17,04,24,13.70
2010,08,17,04,25,13.70
2010,08,17,04,26,13.70
2010,08,17,04,27,13.70
2010,08,17,04,28,13.70
2010,08,17,04,29,13.70
2010,08,17,04,30,13.70
2010,08,17,04,31,13.70
2010,08,17,04,32,13.70
2010,08,17,04,33,13.70
2010,08,17,04,34,13.70
2010,08,17,04,35,13.70
2010,08,17,04,36,13.70
2010,08,17,04,37,13.70
2010,08,17,04,38,13.70
2010,08,17,04,39,13.70
2010,08,17,04,40,13.70
2010,08,17,04,41,13.70
2010,08,17,04,42,13.70
2010,08,17,04,43,13.70
2010,08,17,04,44,13.60
2010,08,17,04,45,13.60
2010,08,17,04,46,13.60
2010,08,17,04,47,13.60
2010,08,17,04,48,13.60
2010,08,17,04,49,13.60
2010,08,17,04,50,13.60
2010,08,17,04,51,13.60
2010,08,17,04,52,13.60
2010,08,17,04,53,13.60
2010,08,17,04,54,13.50
2010,08,17,04,55,13.50
2010,08,17,04,56,13.50
2010,08,17,04,57,13.50
2010,08,17,04,58,13.50
2010,08,17,04,59,13.40
2010,08,17,05,00,13.40
2010,08,17,05,01,13.40
2010,08,17,05,02,13.40
2010,08,17,05,03,13.40
2010,08,17,05,04,13.30
2010,08,17,05,05,13.30
2010,08,17,05,06,13.30
2010,08,17,05,07,13.30
2010,08,17,05,08,13.30
2010,08,17,05,09,13.30
2010,08,17,05,10,13.30
2010,08,17,05,11,13.30
2010,08,17,05,12,13.30
2010,08,17,05,13,13.30
2010,08,17,05,14,13.30
2010,08,17,05,15,13.30
2010,08,17,05,16,13.30
2010,08,17,05,17,13.30
2010,08,17,05,18,13.30
2010,08,17,05,19,13.30
2010,08,17,05,20,13.30
2010,08,17,05,21,13.30
2010,08,17,05,22,13.30
2010,08,17,05,23,13.30
2010,08,17,05,24,13.20
2010,08,17,05,25,13.20
2010,08,17,05,26,13.20
2010,08,17,05,27,13.20
2010,08,17,05,28,13.10
2010,08,17,05,29,13.10
2010,08,17,05,30,13.10
2010,08,17,05,31,13.00
2010,08,17,05,32,13.00
2010,08,17,05,33,13.00
2010,08,17,05,34,13.00
2010,08,17,05,35,12.90
2010,08,17,05,36,12.90
2010,08,17,05,37,12.90
2010,08,17,05,38,12.90
2010,08,17,05,39,12.80
2010,08,17,05,40,12.80
2010,08,17,05,41,12.80
2010,08,17,05,42,12.80
2010,08,17,05,43,12.80
2010,08,17,05,44,12.80
2010,08,17,05,45,12.80
2010,08,17,05,46,12.80
2010,08,17,05,47,12.80
2010,08,17,05,48,12.80
2010,08,17,05,49,12.80
2010,08,17,05,50,12.80
2010,08,17,05,51,12.80
2010,08,17,05,52,12.80
2010,08,17,05,53,12.80
2010,08,17,05,54,12.80
2010,08,17,05,55,12.80
2010,08,17,05,56,12.80
2010,08,17,05,57,12.80
2010,08,17,05,58,12.80
2010,08,17,05,59,12.80
2010,08,17,06,00,12.80
2010,08,17,06,01,12.80
2010,08,17,06,02,12.80
2010,08,17,06,03,12.70
2010,08,17,06,04,12.70
2010,08,17,06,05,12.70
2010,08,17,06,06,12.70
2010,08,17,06,07,12.70
2010,08,17,06,08,12.70
2010,08,17,06,09,12.70
2010,08,17,06,10,12.70
2010,08,17,06,11,12.70
2010,08,17,06,12,12.70
2010,08,17,06,13,12.70
2010,08,17,06,14,12.70
2010,08,17,06,15,12.60
2010,08,17,06,16,12.60
2010,08,17,06,17,12.60
2010,08,17,06,18,12.60
2010,08,17,06,19,12.60
2010,08,17,06,20,12.70
2010,08,17,06,21,12.70
2010,08,17,06,22,12.70
2010,08,17,06,23,12.70
2010,08,17,06,24,12.70
2010,08,17,06,25,12.70
2010,08,17,06,26,12.70
2010,08,17,06,27,12.70
2010,08,17,06,28,12.70
2010,08,17,06,29,12.70
2010,08,17,06,30,12.70
2010,08,17,06,31,12.80
2010,08,17,06,32,12.80
2010,08,17,06,33,12.80
2010,08,17,06,34,12.80
2010,08,17,06,35,12.80
2010,08,17,06,36,12.80
2010,08,17,06,37,12.80
2010,08,17,06,38,12.80
2010,08,17,06,39,12.80
2010,08,17,06,40,12.80
2010,08,17,06,41,12.80
2010,08,17,06,42,12.80
2010,08,17,06,43,12.80
2010,08,17,06,44,12.80
2010,08,17,06,45,12.80
2010,08,17,06,46,12.80
2010,08,17,06,47,12.90
2010,08,17,06,48,13.00
2010,08,17,06,49,13.00
2010,08,17,06,50,13.00
2010,08,17,06,51,13.10
2010,08,17,06,52,13.10
2010,08,17,06,53,13.20
2010,08,17,06,54,13.20
2010,08,17,06,55,13.30
2010,08,17,06,56,13.30
2010,08,17,06,57,13.40
2010,08,17,06,58,13.50
2010,08,17,06,59,13.50
2010,08,17,07,00,13.60
2010,08,17,07,01,13.70
2010,08,17,07,02,13.70
2010,08,17,07,03,13.70
2010,08,17,07,04,13.80
2010,08,17,07,05,13.80
2010,08,17,07,06,13.80
2010,08,17,07,07,13.90
2010,08,17,07,08,13.90
2010,08,17,07,09,14.00
2010,08,17,07,10,14.00
2010,08,17,07,11,14.10
2010,08,17,07,12,14.10
2010,08,17,07,13,14.20
2010,08,17,07,14,14.20
2010,08,17,07,15,14.20
2010,08,17,07,16,14.20
2010,08,17,07,17,14.30
2010,08,17,07,18,14.30
2010,08,17,07,19,14.40
2010,08,17,07,20,14.50
2010,08,17,07,21,14.50
2010,08,17,07,22,14.50
2010,08,17,07,23,14.60
2010,08,17,07,24,14.70
2010,08,17,07,25,14.80
2010,08,17,07,26,14.80
2010,08,17,07,27,14.80
2010,08,17,07,28,14.90
2010,08,17,07,29,14.90
2010,08,17,07,30,15.00
2010,08,17,07,31,15.00
2010,08,17,07,32,15.10
2010,08,17,07,33,15.10
2010,08,17,07,34,15.20
2010,08,17,07,35,15.20
2010,08,17,07,36,15.30
2010,08,17,07,37,15.30
2010,08,17,07,38,15.30
2010,08,17,07,39,15.40
2010,08,17,07,40,15.50
2010,08,17,07,41,15.50
2010,08,17,07,42,15.60
2010,08,17,07,43,15.60
2010,08,17,07,44,15.70
2010,08,17,07,45,15.80
2010,08,17,07,46,15.80
2010,08,17,07,47,15.80
2010,08,17,07,48,15.90
2010,08,17,07,49,16.00
2010,08,17,07,50,16.10
2010,08,17,07,51,16.10
2010,08,17,07,52,16.20
2010,08,17,07,53,16.30
2010,08,17,07,54,16.40
2010,08,17,07,55,16.40
2010,08,17,07,56,16.50
2010,08,17,07,57,16.60
2010,08,17,07,58,16.70
2010,08,17,07,59,16.70
2010,08,17,08,00,16.80
2010,08,17,08,01,16.90
2010,08,17,08,02,17.00
2010,08,17,08,03,17.00
2010,08,17,08,04,17.10
2010,08,17,08,05,17.20
2010,08,17,08,06,17.30
2010,08,17,08,07,17.30
2010,08,17,08,08,17.40
2010,08,17,08,09,17.50
2010,08,17,08,10,17.50
2010,08,17,08,11,17.50
2010,08,17,08,12,17.60
2010,08,17,08,13,17.70
2010,08,17,08,14,17.70
2010,08,17,08,15,17.80
2010,08,17,08,16,17.90
2010,08,17,08,17,17.90
2010,08,17,08,18,17.90
2010,08,17,08,19,17.90
2010,08,17,08,20,18.00
2010,08,17,08,21,18.10
2010,08,17,08,22,18.20
2010,08,17,08,23,18.20
2010,08,17,08,24,18.30
2010,08,17,08,25,18.40
2010,08,17,08,26,18.50
2010,08,17,08,27,18.50
2010,08,17,08,28,18.60
2010,08,17,08,29,18.70
2010,08,17,08,30,18.70
2010,08,17,08,31,18.80
2010,08,17,08,32,18.90
2010,08,17,08,33,18.90
2010,08,17,08,34,18.90
2010,08,17,08,35,19.10
2010,08,17,08,36,19.10
2010,08,17,08,37,19.10
2010,08,17,08,38,19.20
2010,08,17,08,39,19.20
2010,08,17,08,40,19.30
2010,08,17,08,41,19.30
2010,08,17,08,42,19.40
2010,08,17,08,43,19.40
2010,08,17,08,44,19.50
2010,08,17,08,45,19.50
2010,08,17,08,46,19.60
2010,08,17,08,47,19.60
2010,08,17,08,48,19.70
2010,08,17,08,49,19.70
2010,08,17,08,50,19.70
2010,08,17,08,51,19.80
2010,08,17,08,52,19.90
2010,08,17,08,53,19.90
2010,08,17,08,54,20.10
2010,08,17,08,55,20.10
2010,08,17,08,56,20.20
2010,08,17,08,57,20.20
2010,08,17,08,58,20.20
2010,08,17,08,59,20.30
2010,08,17,09,00,20.40
2010,08,17,09,01,20.50
2010,08,17,09,02,20.50
2010,08,17,09,03,20.60
2010,08,17,09,04,20.60
2010,08,17,09,05,20.70
2010,08,17,09,06,20.80
2010,08,17,09,07,20.80
2010,08,17,09,08,20.80
2010,08,17,09,09,20.90
2010,08,17,09,10,20.90
2010,08,17,09,11,20.90
2010,08,17,09,12,21.00
2010,08,17,09,13,21.00
2010,08,17,09,14,21.00
2010,08,17,09,15,21.00
2010,08,17,09,16,21.00
2010,08,17,09,17,21.10
2010,08,17,09,18,21.10
2010,08,17,09,19,21.10
2010,08,17,09,20,21.20
2010,08,17,09,21,21.20
2010,08,17,09,22,21.30
2010,08,17,09,23,21.30
2010,08,17,09,24,21.40
2010,08,17,09,25,21.50
2010,08,17,09,26,21.60
2010,08,17,09,27,21.60
2010,08,17,09,28,21.60
2010,08,17,09,29,21.60
2010,08,17,09,30,21.60
2010,08,17,09,31,21.70
2010,08,17,09,32,21.70
2010,08,17,09,33,21.80
2010,08,17,09,34,21.90
2010,08,17,09,35,21.90
2010,08,17,09,36,22.00
2010,08,17,09,37,22.10
2010,08,17,09,38,22.20
2010,08,17,09,39,22.20
2010,08,17,09,40,22.30
2010,08,17,09,41,22.30
2010,08,17,09,42,22.40
2010,08,17,09,43,22.60
2010,08,17,09,44,22.60
2010,08,17,09,45,22.70
2010,08,17,09,46,22.70
2010,08,17,09,47,22.70
2010,08,17,09,48,22.70
2010,08,17,09,49,22.70
2010,08,17,09,50,22.80
2010,08,17,09,51,22.80
2010,08,17,09,52,22.90
2010,08,17,09,53,22.90
2010,08,17,09,54,22.90
2010,08,17,09,55,22.90
2010,08,17,09,56,22.90
2010,08,17,09,57,23.00
2010,08,17,09,58,23.10
2010,08,17,09,59,23.10
2010,08,17,10,00,23.20
2010,08,17,10,01,23.30
2010,08,17,10,02,23.30
2010,08,17,10,03,23.30
2010,08,17,10,04,23.30
2010,08,17,10,05,23.40
2010,08,17,10,06,23.40
2010,08,17,10,07,23.40
2010,08,17,10,08,23.40
2010,08,17,10,09,23.40
2010,08,17,10,10,23.50
2010,08,17,10,11,23.50
2010,08,17,10,12,23.60
2010,08,17,10,13,23.60
2010,08,17,10,14,23.70
2010,08,17,10,15,23.70
2010,08,17,10,16,23.70
2010,08,17,10,17,23.80
2010,08,17,10,18,23.80
2010,08,17,10,19,23.80
2010,08,17,10,20,23.90
2010,08,17,10,21,23.90
2010,08,17,10,22,24.00
2010,08,17,10,23,24.10
2010,08,17,10,24,24.10
2010,08,17,10,25,24.10
2010,08,17,10,26,24.10
2010,08,17,10,27,24.10
2010,08,17,10,28,24.10
2010,08,17,10,29,24.20
2010,08,17,10,30,24.20
2010,08,17,10,31,24.30
2010,08,17,10,32,24.30
2010,08,17,10,33,24.40
2010,08,17,10,34,24.50
2010,08,17,10,35,24.50
2010,08,17,10,36,24.60
2010,08,17,10,37,24.60
2010,08,17,10,38,24.60
2010,08,17,10,39,24.60
2010,08,17,10,40,24.60
2010,08,17,10,41,24.50
2010,08,17,10,42,24.50
2010,08,17,10,43,24.50
2010,08,17,10,44,24.40
2010,08,17,10,45,24.30
2010,08,17,10,46,24.30
2010,08,17,10,47,24.30
2010,08,17,10,48,24.20
2010,08,17,10,49,24.20
2010,08,17,10,50,24.10
2010,08,17,10,51,24.10
2010,08,17,10,52,24.20
2010,08,17,10,53,24.20
2010,08,17,10,54,24.20
2010,08,17,10,55,24.30
2010,08,17,10,56,24.30
2010,08,17,10,57,24.30
2010,08,17,10,58,24.20
2010,08,17,10,59,24.10
2010,08,17,11,00,24.00
2010,08,17,11,01,23.90
2010,08,17,11,02,23.70
2010,08,17,11,03,23.60
2010,08,17,11,04,23.50
2010,08,17,11,05,23.30
2010,08,17,11,06,23.30
2010,08,17,11,07,23.30
2010,08,17,11,08,23.30
2010,08,17,11,09,23.30
2010,08,17,11,10,23.30
2010,08,17,11,11,23.40
2010,08,17,11,12,23.40
2010,08,17,11,13,23.30
2010,08,17,11,14,23.30
2010,08,17,11,15,23.30
2010,08,17,11,16,23.30
2010,08,17,11,17,23.20
2010,08,17,11,18,23.20
2010,08,17,11,19,23.30
2010,08,17,11,20,23.30
2010,08,17,11,21,23.30
2010,08,17,11,22,23.30
2010,08,17,11,23,23.30
2010,08,17,11,24,23.30
2010,08,17,11,25,23.30
2010,08,17,11,26,23.30
2010,08,17,11,27,23.40
2010,08,17,11,28,23.50
2010,08,17,11,29,23.60
2010,08,17,11,30,23.60
2010,08,17,11,31,23.70
2010,08,17,11,32,23.70
2010,08,17,11,33,23.70
2010,08,17,11,34,23.60
2010,08,17,11,35,23.50
2010,08,17,11,36,23.40
2010,08,17,11,37,23.40
2010,08,17,11,38,23.40
2010,08,17,11,39,23.40
2010,08,17,11,40,23.30
2010,08,17,11,41,23.30
2010,08,17,11,42,23.30
2010,08,17,11,43,23.20
2010,08,17,11,44,23.00
2010,08,17,11,45,22.90
2010,08,17,11,46,22.80
2010,08,17,11,47,22.80
2010,08,17,11,48,22.70
2010,08,17,11,49,22.70
2010,08,17,11,50,22.60
2010,08,17,11,51,22.50
2010,08,17,11,52,22.50
2010,08,17,11,53,22.50
2010,08,17,11,54,22.50
2010,08,17,11,55,22.60
2010,08,17,11,56,22.60
2010,08,17,11,57,22.70
2010,08,17,11,58,22.80
2010,08,17,11,59,22.90
2010,08,17,12,00,22.90
2010,08,17,12,01,22.90
2010,08,17,12,02,22.90
2010,08,17,12,03,22.90
2010,08,17,12,04,23.00
2010,08,17,12,05,23.10
2010,08,17,12,06,23.20
2010,08,17,12,07,23.20
2010,08,17,12,08,23.30
2010,08,17,12,09,23.40
2010,08,17,12,10,23.50
2010,08,17,12,11,23.70
2010,08,17,12,12,23.70
2010,08,17,12,13,23.80
2010,08,17,12,14,23.90
2010,08,17,12,15,24.00
2010,08,17,12,16,24.10
2010,08,17,12,17,24.10
2010,08,17,12,18,24.10
2010,08,17,12,19,24.10
2010,08,17,12,20,24.10
2010,08,17,12,21,24.10
2010,08,17,12,22,24.10
2010,08,17,12,23,24.10
2010,08,17,12,24,24.10
2010,08,17,12,25,24.20
2010,08,17,12,26,24.20
2010,08,17,12,27,24.20
2010,08,17,12,28,24.30
2010,08,17,12,29,24.30
2010,08,17,12,30,24.20
2010,08,17,12,31,24.20
2010,08,17,12,32,24.20
2010,08,17,12,33,24.20
2010,08,17,12,34,24.20
2010,08,17,12,35,24.30
2010,08,17,12,36,24.30
2010,08,17,12,37,24.40
2010,08,17,12,38,24.30
2010,08,17,12,39,24.30
2010,08,17,12,40,24.20
2010,08,17,12,41,24.20
2010,08,17,12,42,24.10
2010,08,17,12,43,24.10
2010,08,17,12,44,24.10
2010,08,17,12,45,24.10
2010,08,17,12,46,24.20
2010,08,17,12,47,24.30
2010,08,17,12,48,24.40
2010,08,17,12,49,24.40
2010,08,17,12,50,24.50
2010,08,17,12,51,24.50
2010,08,17,12,52,24.60
2010,08,17,12,53,24.60
2010,08,17,12,54,24.60
2010,08,17,12,55,24.70
2010,08,17,12,56,24.80
2010,08,17,12,57,24.80
2010,08,17,12,58,24.90
2010,08,17,12,59,24.70
2010,08,17,13,00,24.50
2010,08,17,13,01,24.40
2010,08,17,13,02,24.40
2010,08,17,13,03,24.30
2010,08,17,13,04,24.20
2010,08,17,13,05,24.20
2010,08,17,13,06,24.30
2010,08,17,13,07,24.30
2010,08,17,13,08,24.30
2010,08,17,13,09,24.30
2010,08,17,13,10,24.30
2010,08,17,13,11,24.30
2010,08,17,13,12,24.40
2010,08,17,13,13,24.40
2010,08,17,13,14,24.40
2010,08,17,13,15,24.30
2010,08,17,13,16,24.40
2010,08,17,13,17,24.40
2010,08,17,13,18,24.40
2010,08,17,13,19,24.40
2010,08,17,13,20,24.30
2010,08,17,13,21,24.40
2010,08,17,13,22,24.40
2010,08,17,13,23,24.50
2010,08,17,13,24,24.50
2010,08,17,13,25,24.50
2010,08,17,13,26,24.50
2010,08,17,13,27,24.50
2010,08,17,13,28,24.50
2010,08,17,13,29,24.40
2010,08,17,13,30,24.50
2010,08,17,13,31,24.50
2010,08,17,13,32,24.60
2010,08,17,13,33,24.70
2010,08,17,13,34,24.70
2010,08,17,13,35,24.70
2010,08,17,13,36,24.60
2010,08,17,13,37,24.60
2010,08,17,13,38,24.70
2010,08,17,13,39,24.70
2010,08,17,13,40,24.80
2010,08,17,13,41,24.90
2010,08,17,13,42,25.20
2010,08,17,13,43,25.30
2010,08,17,13,44,25.40
2010,08,17,13,45,25.50
2010,08,17,13,46,25.60
2010,08,17,13,47,25.70
2010,08,17,13,48,25.80
2010,08,17,13,49,25.90
2010,08,17,13,50,26.10
2010,08,17,13,51,26.10
2010,08,17,13,52,26.20
2010,08,17,13,53,26.20
2010,08,17,13,54,26.20
2010,08,17,13,55,26.30
2010,08,17,13,56,26.30
2010,08,17,13,57,26.30
2010,08,17,13,58,26.30
2010,08,17,13,59,26.40
2010,08,17,14,00,26.40
2010,08,17,14,01,26.30
2010,08,17,14,02,26.20
2010,08,17,14,03,26.00
2010,08,17,14,04,25.90
2010,08,17,14,05,25.80
2010,08,17,14,06,25.60
2010,08,17,14,07,25.40
2010,08,17,14,08,25.20
2010,08,17,14,09,25.10
2010,08,17,14,10,25.10
2010,08,17,14,11,25.00
2010,08,17,14,12,24.90
2010,08,17,14,13,24.90
2010,08,17,14,14,24.90
2010,08,17,14,15,24.90
2010,08,17,14,16,24.80
2010,08,17,14,17,24.80
2010,08,17,14,18,24.70
2010,08,17,14,19,24.70
2010,08,17,14,20,24.80
2010,08,17,14,21,24.80
2010,08,17,14,22,24.80
2010,08,17,14,23,24.80
2010,08,17,14,24,24.70
2010,08,17,14,25,24.70
2010,08,17,14,26,24.70
2010,08,17,14,27,24.70
2010,08,17,14,28,24.70
2010,08,17,14,29,24.80
2010,08,17,14,30,24.90
2010,08,17,14,31,24.90
2010,08,17,14,32,24.90
2010,08,17,14,33,25.00
2010,08,17,14,34,25.00
2010,08,17,14,35,25.20
2010,08,17,14,36,25.30
2010,08,17,14,37,25.40
2010,08,17,14,38,25.60
2010,08,17,14,39,25.80
2010,08,17,14,40,25.90
2010,08,17,14,41,26.00
2010,08,17,14,42,26.10
2010,08,17,14,43,26.20
2010,08,17,14,44,26.30
2010,08,17,14,45,26.40
2010,08,17,14,46,26.50
2010,08,17,14,47,26.60
2010,08,17,14,48,26.60
2010,08,17,14,49,26.60
2010,08,17,14,50,26.60
2010,08,17,14,51,26.70
2010,08,17,14,52,26.70
2010,08,17,14,53,26.80
2010,08,17,14,54,26.80
2010,08,17,14,55,26.90
2010,08,17,14,56,26.90
2010,08,17,14,57,27.00
2010,08,17,14,58,27.10
2010,08,17,14,59,27.10
2010,08,17,15,00,27.10
2010,08,17,15,01,27.10
2010,08,17,15,02,27.20
2010,08,17,15,03,27.30
2010,08,17,15,04,27.30
2010,08,17,15,05,27.30
2010,08,17,15,06,27.30
2010,08,17,15,07,27.40
2010,08,17,15,08,27.40
2010,08,17,15,09,27.50
2010,08,17,15,10,27.40
2010,08,17,15,11,27.40
2010,08,17,15,12,27.40
2010,08,17,15,13,27.40
2010,08,17,15,14,27.40
2010,08,17,15,15,27.40
2010,08,17,15,16,27.40
2010,08,17,15,17,27.40
2010,08,17,15,18,27.30
2010,08,17,15,19,27.30
2010,08,17,15,20,27.30
2010,08,17,15,21,27.30
2010,08,17,15,22,27.40
2010,08,17,15,23,27.50
2010,08,17,15,24,27.60
2010,08,17,15,25,27.60
2010,08,17,15,26,27.60
2010,08,17,15,27,27.70
2010,08,17,15,28,27.80
2010,08,17,15,29,27.90
2010,08,17,15,30,27.90
2010,08,17,15,31,27.90
2010,08,17,15,32,27.90
2010,08,17,15,33,27.90
2010,08,17,15,34,27.90
2010,08,17,15,35,27.90
2010,08,17,15,36,27.90
2010,08,17,15,37,27.90
2010,08,17,15,38,27.90
2010,08,17,15,39,27.90
2010,08,17,15,40,27.90
2010,08,17,15,41,27.90
2010,08,17,15,42,27.90
2010,08,17,15,43,27.80
2010,08,17,15,44,27.80
2010,08,17,15,45,27.80
2010,08,17,15,46,27.80
2010,08,17,15,47,27.70
2010,08,17,15,48,27.70
2010,08,17,15,49,27.80
2010,08,17,15,50,27.80
2010,08,17,15,51,27.90
2010,08,17,15,52,27.90
2010,08,17,15,53,27.90
2010,08,17,15,54,27.80
2010,08,17,15,55,27.70
2010,08,17,15,56,27.70
2010,08,17,15,57,27.60
2010,08,17,15,58,27.60
2010,08,17,15,59,27.60
2010,08,17,16,00,27.60
2010,08,17,16,01,27.60
2010,08,17,16,02,27.60
2010,08,17,16,03,27.60
2010,08,17,16,04,27.60
2010,08,17,16,05,27.60
2010,08,17,16,06,27.50
2010,08,17,16,07,27.40
2010,08,17,16,08,27.40
2010,08,17,16,09,27.30
2010,08,17,16,10,27.30
2010,08,17,16,11,27.30
2010,08,17,16,12,27.30
2010,08,17,16,13,27.30
2010,08,17,16,14,27.30
2010,08,17,16,15,27.30
2010,08,17,16,16,27.30
2010,08,17,16,17,27.30
2010,08,17,16,18,27.30
2010,08,17,16,19,27.20
2010,08,17,16,20,27.20
2010,08,17,16,21,27.20
2010,08,17,16,22,27.10
2010,08,17,16,23,27.10
2010,08,17,16,24,27.10
2010,08,17,16,25,26.90
2010,08,17,16,26,26.90
2010,08,17,16,27,26.90
2010,08,17,16,28,27.10
2010,08,17,16,29,27.10
2010,08,17,16,30,27.20
2010,08,17,16,31,27.20
2010,08,17,16,32,27.20
2010,08,17,16,33,27.20
2010,08,17,16,34,27.20
2010,08,17,16,35,27.20
2010,08,17,16,36,27.20
2010,08,17,16,37,27.20
2010,08,17,16,38,27.20
2010,08,17,16,39,27.10
2010,08,17,16,40,27.10
2010,08,17,16,41,27.20
2010,08,17,16,42,27.20
2010,08,17,16,43,27.20
2010,08,17,16,44,27.20
2010,08,17,16,45,27.20
2010,08,17,16,46,27.30
2010,08,17,16,47,27.30
2010,08,17,16,48,27.30
2010,08,17,16,49,27.30
2010,08,17,16,50,27.30
2010,08,17,16,51,27.30
2010,08,17,16,52,27.20
2010,08,17,16,53,27.10
2010,08,17,16,54,27.00
2010,08,17,16,55,26.90
2010,08,17,16,56,26.80
2010,08,17,16,57,26.70
2010,08,17,16,58,26.70
2010,08,17,16,59,26.60
2010,08,17,17,00,26.40
2010,08,17,17,01,26.30
2010,08,17,17,02,26.20
2010,08,17,17,03,26.20
2010,08,17,17,04,26.20
2010,08,17,17,05,26.20
2010,08,17,17,06,26.10
2010,08,17,17,07,26.10
2010,08,17,17,08,26.10
2010,08,17,17,09,26.00
2010,08,17,17,10,25.90
2010,08,17,17,11,25.80
2010,08,17,17,12,25.70
2010,08,17,17,13,25.60
2010,08,17,17,14,25.50
2010,08,17,17,15,25.40
2010,08,17,17,16,25.40
2010,08,17,17,17,25.30
2010,08,17,17,18,25.30
2010,08,17,17,19,25.20